Time,TemperatureF,DewpointF,PressureIn,WindDirection,WindDirectionDegrees,WindSpeedMPH,WindSpeedGustMPH,Humidity,HourlyPrecipIn,Conditions,Clouds,dailyrainin,SoftwareType,DateUTC
2013-09-17 00:11:00,65.0,62.0,29.78,North,355,0.0,3.0,90,0.00,,,0.00,,2013-09-17 07:11:00,
2013-09-17 00:23:00,65.0,62.0,29.78,North,355,0.0,3.0,90,0.00,,,0.00,,2013-09-17 07:23:00,
2013-09-17 00:32:00,65.0,62.0,29.78,North,355,0.0,3.0,90,0.00,,,0.00,,2013-09-17 07:32:00,
2013-09-17 00:42:00,65.0,62.0,29.78,North,355,0.0,3.0,90,0.00,,,0.00,,2013-09-17 07:42:00,
2013-09-17 01:12:00,64.0,61.0,29.77,NNE,16,2.0,3.0,90,0.00,,,0.00,,2013-09-17 08:12:00,
2013-09-17 01:22:00,63.0,60.0,29.78,NNE,16,1.0,2.0,91,0.00,,,0.00,,2013-09-17 08:22:00,
2013-09-17 01:52:00,63.0,60.0,29.77,NNE,16,1.0,2.0,91,0.00,,,0.00,,2013-09-17 08:52:00,
2013-09-17 02:11:00,63.0,60.0,29.77,NNE,19,1.0,2.0,91,0.00,,,0.00,,2013-09-17 09:11:00,
2013-09-17 02:22:00,63.0,60.0,29.77,NNE,19,1.0,2.0,91,0.00,,,0.00,,2013-09-17 09:22:00,
2013-09-17 02:42:00,63.0,61.0,29.77,NNE,19,1.0,2.0,92,0.00,,,0.00,,2013-09-17 09:42:00,
2013-09-17 02:53:00,63.0,61.0,29.77,NNE,19,0.0,2.0,92,0.00,,,0.00,,2013-09-17 09:53:00,
2013-09-17 03:12:00,64.0,62.0,29.76,NNE,19,1.0,2.0,92,0.00,,,0.00,,2013-09-17 10:12:00,
2013-09-17 03:23:00,64.0,62.0,29.76,NNE,19,1.0,2.0,92,0.00,,,0.00,,2013-09-17 10:23:00,
2013-09-17 03:42:00,64.0,61.0,29.76,NNE,22,2.0,3.0,91,0.00,,,0.00,,2013-09-17 10:42:00,
2013-09-17 03:53:00,64.0,61.0,29.76,NNE,27,1.0,3.0,91,0.00,,,0.00,,2013-09-17 10:53:00,
2013-09-17 04:03:00,64.0,61.0,29.76,NNE,27,1.0,3.0,91,0.00,,,0.00,,2013-09-17 11:03:00,
2013-09-17 04:11:00,64.0,61.0,29.76,NNE,27,1.0,3.0,91,0.00,,,0.00,,2013-09-17 11:11:00,
2013-09-17 04:22:00,64.0,61.0,29.76,NNE,27,1.0,3.0,91,0.00,,,0.00,,2013-09-17 11:22:00,
2013-09-17 04:52:00,65.0,62.0,29.76,NNE,17,2.0,3.0,91,0.00,,,0.00,,2013-09-17 11:52:00,
2013-09-17 05:12:00,65.0,62.0,29.75,NNE,20,1.0,3.0,91,0.00,,,0.00,,2013-09-17 12:12:00,
2013-09-17 05:21:00,65.0,62.0,29.75,NNE,20,1.0,3.0,91,0.00,,,0.00,,2013-09-17 12:21:00,
2013-09-17 05:52:00,65.0,62.0,29.76,NNE,22,1.0,3.0,91,0.00,,,0.00,,2013-09-17 12:52:00,
2013-09-17 06:11:00,65.0,62.0,29.76,NNE,23,0.0,3.0,91,0.00,,,0.00,,2013-09-17 13:11:00,
2013-09-17 06:22:00,66.0,63.0,29.76,ENE,69,1.0,1.0,91,0.00,,,0.00,,2013-09-17 13:22:00,
2013-09-17 06:32:00,66.0,63.0,29.76,ENE,69,1.0,1.0,91,0.00,,,0.00,,2013-09-17 13:32:00,
2013-09-17 06:52:00,66.0,63.0,29.77,NNE,22,0.0,3.0,91,0.00,,,0.00,,2013-09-17 13:52:00,
2013-09-17 07:11:00,66.0,63.0,29.77,NNE,22,0.0,3.0,91,0.00,,,0.00,,2013-09-17 14:11:00,
2013-09-17 07:21:00,66.0,63.0,29.77,NNE,22,0.0,3.0,91,0.00,,,0.00,,2013-09-17 14:21:00,
2013-09-17 07:52:00,66.0,63.0,29.78,North,5,0.0,3.0,90,0.00,,,0.00,,2013-09-17 14:52:00,
2013-09-17 08:11:00,66.0,63.0,29.78,North,5,0.0,2.0,90,0.00,,,0.00,,2013-09-17 15:11:00,
2013-09-17 08:22:00,66.0,63.0,29.78,West,276,1.0,3.0,91,0.00,,,0.00,,2013-09-17 15:22:00,
2013-09-17 08:33:00,66.0,63.0,29.78,West,276,1.0,3.0,91,0.00,,,0.00,,2013-09-17 15:33:00,
2013-09-17 08:44:00,66.0,63.0,29.78,West,276,1.0,3.0,91,0.00,,,0.00,,2013-09-17 15:44:00,
2013-09-17 08:53:00,66.0,63.0,29.78,WSW,244,3.0,3.0,90,0.00,,,0.00,,2013-09-17 15:53:00,
2013-09-17 09:03:00,66.0,63.0,29.78,WSW,244,3.0,3.0,90,0.00,,,0.00,,2013-09-17 16:03:00,
2013-09-17 09:23:00,67.0,64.0,29.78,East,98,0.0,3.0,90,0.00,,,0.00,,2013-09-17 16:23:00,
2013-09-17 09:53:00,67.0,64.0,29.79,West,259,2.0,3.0,90,0.00,,,0.00,,2013-09-17 16:53:00,
2013-09-17 10:12:00,67.0,64.0,29.79,West,265,1.0,3.0,89,0.00,,,0.00,,2013-09-17 17:12:00,
2013-09-17 10:23:00,67.0,64.0,29.79,West,265,1.0,3.0,89,0.00,,,0.00,,2013-09-17 17:23:00,
2013-09-17 10:34:00,67.0,64.0,29.79,West,265,1.0,3.0,89,0.00,,,0.00,,2013-09-17 17:34:00,
2013-09-17 10:53:00,68.0,64.0,29.79,WSW,253,3.0,6.0,88,0.00,,,0.00,,2013-09-17 17:53:00,
2013-09-17 11:12:00,68.0,64.0,29.80,WSW,257,2.0,3.0,88,0.00,,,0.00,,2013-09-17 18:12:00,
2013-09-17 11:21:00,68.0,64.0,29.79,West,269,2.0,3.0,88,0.00,,,0.00,,2013-09-17 18:21:00,
2013-09-17 11:52:00,68.0,64.0,29.79,West,275,4.0,4.0,87,0.00,,,0.00,,2013-09-17 18:52:00,
2013-09-17 12:11:00,68.0,64.0,29.79,West,275,4.0,4.0,87,0.00,,,0.00,,2013-09-17 19:11:00,
2013-09-17 12:21:00,67.0,63.0,29.79,West,271,5.0,9.0,87,0.00,,,0.00,,2013-09-17 19:21:00,
2013-09-17 12:52:00,68.0,63.0,29.78,WSW,254,5.0,6.0,85,0.00,,,0.00,,2013-09-17 19:52:00,
2013-09-17 13:11:00,68.0,63.0,29.78,West,260,4.0,8.0,84,0.00,,,0.00,,2013-09-17 20:11:00,
2013-09-17 13:22:00,68.0,63.0,29.77,West,273,3.0,8.0,83,0.00,,,0.00,,2013-09-17 20:22:00,
2013-09-17 13:32:00,68.0,63.0,29.77,West,273,3.0,8.0,83,0.00,,,0.00,,2013-09-17 20:32:00,
2013-09-17 13:52:00,70.0,64.0,29.76,West,265,4.0,6.0,82,0.00,,,0.00,,2013-09-17 20:52:00,
2013-09-17 14:01:00,70.0,64.0,29.76,West,265,4.0,6.0,82,0.00,,,0.00,,2013-09-17 21:01:00,
2013-09-17 14:12:00,70.0,64.0,29.76,West,265,4.0,6.0,82,0.00,,,0.00,,2013-09-17 21:12:00,
2013-09-17 14:22:00,70.0,64.0,29.75,West,274,4.0,7.0,80,0.00,,,0.00,,2013-09-17 21:22:00,
2013-09-17 14:54:00,70.0,64.0,29.75,WSW,253,6.0,9.0,80,0.00,,,0.00,,2013-09-17 21:54:00,
2013-09-17 15:04:00,70.0,64.0,29.75,WSW,253,6.0,9.0,80,0.00,,,0.00,,2013-09-17 22:04:00,
2013-09-17 15:13:00,70.0,64.0,29.75,WSW,253,6.0,9.0,80,0.00,,,0.00,,2013-09-17 22:13:00,
2013-09-17 15:53:00,71.0,64.0,29.73,WSW,257,7.0,9.0,78,0.00,,,0.00,,2013-09-17 22:53:00,
2013-09-17 16:21:00,71.0,63.0,29.72,West,270,4.0,8.0,76,0.00,,,0.00,,2013-09-17 23:21:00,
2013-09-17 16:42:00,71.0,63.0,29.72,West,269,3.0,9.0,76,0.00,,,0.00,,2013-09-17 23:42:00,
2013-09-17 16:52:00,71.0,63.0,29.72,West,269,3.0,9.0,76,0.00,,,0.00,,2013-09-17 23:52:00,
2013-09-17 17:02:00,71.0,63.0,29.72,West,269,3.0,9.0,76,0.00,,,0.00,,2013-09-18 00:02:00,
2013-09-17 17:11:00,71.0,63.0,29.72,West,269,3.0,9.0,76,0.00,,,0.00,,2013-09-18 00:11:00,
2013-09-17 17:22:00,71.0,63.0,29.71,West,269,4.0,4.0,77,0.00,,,0.00,,2013-09-18 00:22:00,
2013-09-17 17:32:00,71.0,63.0,29.71,West,269,4.0,4.0,77,0.00,,,0.00,,2013-09-18 00:32:00,
2013-09-17 17:42:00,71.0,63.0,29.71,West,269,4.0,4.0,77,0.00,,,0.00,,2013-09-18 00:42:00,
2013-09-17 17:52:00,70.0,63.0,29.71,West,271,5.0,8.0,78,0.00,,,0.00,,2013-09-18 00:52:00,
2013-09-17 18:01:00,70.0,63.0,29.71,West,271,5.0,8.0,78,0.00,,,0.00,,2013-09-18 01:01:00,
2013-09-17 18:11:00,70.0,63.0,29.71,West,271,5.0,8.0,78,0.00,,,0.00,,2013-09-18 01:11:00,
2013-09-17 18:21:00,70.0,63.0,29.71,West,269,4.0,9.0,78,0.00,,,0.00,,2013-09-18 01:21:00,
2013-09-17 18:52:00,68.0,62.0,29.72,WSW,258,7.0,9.0,80,0.00,,,0.00,,2013-09-18 01:52:00,
2013-09-17 19:03:00,68.0,62.0,29.72,WSW,258,7.0,9.0,80,0.00,,,0.00,,2013-09-18 02:03:00,
2013-09-17 19:22:00,67.0,62.0,29.73,West,259,4.0,6.0,83,0.00,,,0.00,,2013-09-18 02:22:00,
2013-09-17 19:32:00,67.0,62.0,29.73,West,259,4.0,6.0,83,0.00,,,0.00,,2013-09-18 02:32:00,
2013-09-17 19:43:00,67.0,62.0,29.73,West,259,4.0,6.0,83,0.00,,,0.00,,2013-09-18 02:43:00,
2013-09-17 19:52:00,66.0,61.0,29.73,West,261,3.0,3.0,83,0.00,,,0.00,,2013-09-18 02:52:00,
2013-09-17 20:11:00,66.0,60.0,29.74,West,265,1.0,6.0,82,0.00,,,0.00,,2013-09-18 03:11:00,
2013-09-17 20:22:00,66.0,60.0,29.74,West,265,1.0,6.0,82,0.00,,,0.00,,2013-09-18 03:22:00,
2013-09-17 20:44:00,66.0,60.0,29.74,WNW,296,3.0,3.0,82,0.00,,,0.00,,2013-09-18 03:44:00,
2013-09-17 20:55:00,66.0,60.0,29.74,WNW,296,3.0,3.0,82,0.00,,,0.00,,2013-09-18 03:55:00,
2013-09-17 21:04:00,66.0,60.0,29.74,WNW,296,3.0,3.0,82,0.00,,,0.00,,2013-09-18 04:04:00,
2013-09-17 21:54:00,66.0,60.0,29.75,WNW,284,0.0,3.0,82,0.00,,,0.00,,2013-09-18 04:54:00,
2013-09-17 22:12:00,66.0,61.0,29.75,West,274,0.0,1.0,83,0.00,,,0.00,,2013-09-18 05:12:00,
2013-09-17 22:23:00,66.0,61.0,29.75,SE,134,1.0,3.0,83,0.00,,,0.00,,2013-09-18 05:23:00,
2013-09-17 22:33:00,66.0,61.0,29.75,SE,134,1.0,3.0,83,0.00,,,0.00,,2013-09-18 05:33:00,
2013-09-17 22:42:00,66.0,61.0,29.75,SE,134,1.0,3.0,83,0.00,,,0.00,,2013-09-18 05:42:00,
2013-09-17 22:52:00,66.0,61.0,29.75,SE,136,0.0,2.0,83,0.00,,,0.00,,2013-09-18 05:52:00,
2013-09-17 23:12:00,65.0,60.0,29.75,ESE,105,0.0,3.0,83,0.00,,,0.00,,2013-09-18 06:12:00,
2013-09-17 23:22:00,65.0,60.0,29.75,South,172,1.0,2.0,84,0.00,,,0.00,,2013-09-18 06:22:00,
2013-09-17 23:33:00,65.0,60.0,29.75,South,172,1.0,2.0,84,0.00,,,0.00,,2013-09-18 06:33:00,
2013-09-17 23:52:00,65.0,60.0,29.75,South,172,1.0,2.0,84,0.00,,,0.00,,2013-09-18 06:52:00,